RYR6FH EIKY-EIDW

Flight info

Callsign RYR6FH
Flight time 0h 30m
Altitude 23000
Route KER3D KER DCT TIPUR DCT SUTEX SUTEX3R
Aircraft B738/M-SDE3FGILRWY/SB1

Departure

Time 2026-04-22 20:06
Airport Kerry Airport (EIKY)

Arrival

Time 2026-04-22 20:37
Airport Dublin Airport (EIDW)
Time Latitude Longitude Altitude Speed Heading
2026-04-22 19:40 52.18097 -9.53616 118 ft 0 kts 84°
2026-04-22 19:58 52.18096 -9.53629 118 ft 1 kts 83°
2026-04-22 19:58 52.18096 -9.53632 121 ft 0 kts 84°
2026-04-22 20:01 52.18096 -9.53631 121 ft 1 kts 84°
2026-04-22 20:01 52.18091 -9.53607 120 ft 3 kts 125°
2026-04-22 20:02 52.18064 -9.53589 120 ft 4 kts 166°
2026-04-22 20:02 52.18035 -9.53597 120 ft 4 kts 207°
2026-04-22 20:02 52.18009 -9.53620 119 ft 4 kts 200°
2026-04-22 20:02 52.17980 -9.53612 116 ft 4 kts 160°
2026-04-22 20:03 52.17953 -9.53597 118 ft 4 kts 162°
2026-04-22 20:03 52.17947 -9.53594 118 ft 0 kts 162°
2026-04-22 20:04 52.17917 -9.53578 117 ft 8 kts 162°
2026-04-22 20:04 52.17862 -9.53559 118 ft 8 kts 192°
2026-04-22 20:04 52.17828 -9.53630 118 ft 8 kts 250°
2026-04-22 20:04 52.17790 -9.53701 119 ft 8 kts 240°
2026-04-22 20:05 52.17799 -9.53735 121 ft 2 kts 346°
2026-04-22 20:05 52.17809 -9.53723 122 ft 2 kts 59°
2026-04-22 20:05 52.17810 -9.53718 122 ft 0 kts 70°
2026-04-22 20:05 52.17812 -9.53709 122 ft 9 kts 70°
2026-04-22 20:06 52.18006 -9.52779 121 ft 117 kts 72°
2026-04-22 20:06 52.18214 -9.51800 214 ft 150 kts 79°
2026-04-22 20:06 52.18559 -9.50169 1054 ft 156 kts 77°
2026-04-22 20:06 52.18919 -9.48451 2027 ft 161 kts 81°
2026-04-22 20:07 52.19290 -9.46654 2739 ft 180 kts 82°
2026-04-22 20:07 52.19718 -9.44550 3023 ft 210 kts 78°
2026-04-22 20:07 52.20196 -9.42172 3410 ft 233 kts 82°
2026-04-22 20:07 52.20670 -9.39571 4169 ft 244 kts 80°
2026-04-22 20:08 52.21297 -9.36955 5155 ft 253 kts 72°
2026-04-22 20:08 52.22101 -9.34323 5978 ft 265 kts 70°
2026-04-22 20:08 52.22965 -9.31619 6858 ft 272 kts 69°
2026-04-22 20:08 52.23855 -9.28834 7660 ft 281 kts 69°
2026-04-22 20:09 52.24760 -9.25982 8519 ft 286 kts 69°
2026-04-22 20:09 52.25683 -9.23046 9370 ft 294 kts 68°
2026-04-22 20:09 52.26634 -9.19996 10209 ft 302 kts 68°
2026-04-22 20:09 52.27605 -9.16857 10717 ft 321 kts 68°
2026-04-22 20:10 52.28647 -9.13464 11021 ft 343 kts 68°
2026-04-22 20:10 52.29732 -9.09927 11713 ft 353 kts 67°
2026-04-22 20:10 52.30824 -9.06367 12480 ft 359 kts 67°
2026-04-22 20:10 52.31968 -9.02633 13286 ft 365 kts 67°
2026-04-22 20:11 52.33109 -8.98896 14061 ft 371 kts 67°
2026-04-22 20:11 52.34264 -8.95101 14806 ft 375 kts 67°
2026-04-22 20:11 52.35427 -8.91276 15649 ft 375 kts 67°
2026-04-22 20:11 52.36591 -8.87441 16454 ft 378 kts 66°
2026-04-22 20:12 52.37760 -8.83577 17252 ft 380 kts 66°
2026-04-22 20:12 52.38928 -8.79711 18191 ft 377 kts 66°
2026-04-22 20:12 52.40084 -8.75883 19137 ft 373 kts 66°
2026-04-22 20:12 52.41227 -8.72089 19944 ft 372 kts 67°
2026-04-22 20:13 52.42381 -8.68243 20354 ft 381 kts 67°
2026-04-22 20:13 52.43545 -8.64361 20581 ft 378 kts 67°
2026-04-22 20:13 52.44696 -8.60521 20829 ft 373 kts 67°
2026-04-22 20:13 52.45821 -8.56762 21076 ft 372 kts 67°
2026-04-22 20:14 52.46962 -8.52936 21228 ft 375 kts 67°
2026-04-22 20:14 52.48107 -8.49093 21219 ft 374 kts 67°
2026-04-22 20:14 52.49245 -8.45272 21224 ft 372 kts 67°
2026-04-22 20:14 52.50376 -8.41463 21240 ft 372 kts 67°
2026-04-22 20:15 52.51511 -8.37637 21241 ft 373 kts 67°
2026-04-22 20:15 52.52645 -8.33808 21237 ft 373 kts 67°
2026-04-22 20:15 52.53780 -8.29970 21231 ft 373 kts 67°
2026-04-22 20:15 52.54913 -8.26132 21234 ft 373 kts 67°
2026-04-22 20:16 52.56046 -8.22291 21238 ft 373 kts 67°
2026-04-22 20:16 52.57176 -8.18451 21241 ft 373 kts 67°
2026-04-22 20:16 52.58307 -8.14603 21243 ft 374 kts 67°
2026-04-22 20:16 52.59339 -8.10700 21241 ft 372 kts 73°
2026-04-22 20:17 52.60179 -8.06675 21248 ft 371 kts 75°
2026-04-22 20:17 52.60981 -8.02643 21241 ft 371 kts 75°
2026-04-22 20:17 52.61776 -7.98600 21248 ft 371 kts 75°
2026-04-22 20:17 52.62572 -7.94557 21244 ft 371 kts 75°
2026-04-22 20:18 52.63372 -7.90514 21247 ft 371 kts 75°
2026-04-22 20:18 52.64174 -7.86478 21247 ft 371 kts 75°
2026-04-22 20:18 52.64978 -7.82440 21243 ft 371 kts 75°
2026-04-22 20:18 52.65782 -7.78400 21249 ft 371 kts 74°
2026-04-22 20:19 52.66585 -7.74368 21249 ft 371 kts 74°
2026-04-22 20:19 52.67388 -7.70327 21251 ft 371 kts 74°
2026-04-22 20:19 52.68190 -7.66287 21253 ft 371 kts 74°
2026-04-22 20:19 52.68989 -7.62249 21257 ft 371 kts 74°
2026-04-22 20:20 52.69788 -7.58209 21257 ft 369 kts 74°
2026-04-22 20:20 52.70571 -7.54242 21240 ft 357 kts 74°
2026-04-22 20:20 52.71326 -7.50416 21178 ft 345 kts 74°
2026-04-22 20:20 52.72291 -7.46840 20896 ft 344 kts 57°
2026-04-22 20:21 52.73956 -7.43892 19915 ft 364 kts 38°
2026-04-22 20:21 52.76111 -7.41464 18886 ft 384 kts 33°
2026-04-22 20:21 52.78395 -7.39120 18225 ft 388 kts 32°
2026-04-22 20:21 52.80692 -7.36808 17800 ft 384 kts 32°
2026-04-22 20:22 52.82959 -7.34523 17406 ft 379 kts 32°
2026-04-22 20:22 52.85190 -7.32253 16956 ft 376 kts 32°
2026-04-22 20:22 52.87406 -7.29978 16495 ft 374 kts 32°
2026-04-22 20:22 52.89610 -7.27699 16051 ft 372 kts 33°
2026-04-22 20:23 52.91820 -7.25404 15629 ft 369 kts 33°
2026-04-22 20:23 52.93956 -7.23178 15217 ft 366 kts 33°
2026-04-22 20:23 52.96130 -7.20907 14790 ft 363 kts 33°
2026-04-22 20:23 52.98244 -7.18695 14106 ft 368 kts 33°
2026-04-22 20:24 53.00454 -7.16380 12968 ft 384 kts 33°
2026-04-22 20:24 53.02733 -7.13987 12117 ft 390 kts 34°
2026-04-22 20:24 53.05012 -7.11594 11518 ft 387 kts 34°
2026-04-22 20:24 53.07311 -7.09180 11013 ft 382 kts 34°
2026-04-22 20:25 53.09518 -7.06860 10795 ft 369 kts 35°
2026-04-22 20:25 53.11641 -7.04626 10693 ft 353 kts 35°
2026-04-22 20:25 53.13646 -7.02516 10598 ft 334 kts 35°
2026-04-22 20:25 53.15578 -7.00480 10456 ft 315 kts 36°
2026-04-22 20:26 53.17380 -6.98577 10263 ft 301 kts 36°
2026-04-22 20:26 53.19134 -6.96718 9775 ft 298 kts 37°
2026-04-22 20:26 53.20880 -6.94861 9217 ft 297 kts 37°
2026-04-22 20:26 53.22620 -6.93011 8707 ft 295 kts 37°
2026-04-22 20:27 53.24346 -6.91177 8216 ft 293 kts 37°
2026-04-22 20:27 53.26051 -6.89362 7832 ft 287 kts 37°
2026-04-22 20:27 53.27710 -6.87600 7545 ft 279 kts 37°
2026-04-22 20:27 53.29324 -6.85882 7243 ft 273 kts 37°
2026-04-22 20:28 53.30922 -6.84176 6953 ft 272 kts 37°
2026-04-22 20:28 53.32515 -6.82475 6717 ft 271 kts 37°
2026-04-22 20:28 53.34096 -6.80786 6457 ft 269 kts 37°
2026-04-22 20:28 53.35666 -6.79108 6203 ft 267 kts 37°
2026-04-22 20:29 53.37226 -6.77439 5944 ft 265 kts 38°
2026-04-22 20:29 53.38768 -6.75788 5725 ft 260 kts 38°
2026-04-22 20:29 53.40269 -6.74184 5477 ft 252 kts 38°
2026-04-22 20:29 53.41723 -6.72626 5206 ft 245 kts 38°
2026-04-22 20:30 53.43137 -6.71111 4954 ft 238 kts 39°
2026-04-22 20:30 53.44491 -6.69658 4718 ft 230 kts 39°
2026-04-22 20:30 53.45555 -6.67873 4533 ft 205 kts 72°
2026-04-22 20:30 53.45793 -6.65695 4423 ft 181 kts 96°
2026-04-22 20:31 53.45733 -6.63690 4412 ft 162 kts 100°
2026-04-22 20:31 53.45635 -6.61852 4235 ft 155 kts 101°
2026-04-22 20:31 53.45532 -6.60065 4038 ft 154 kts 101°
2026-04-22 20:31 53.45428 -6.58277 3838 ft 154 kts 101°
2026-04-22 20:32 53.45324 -6.56495 3632 ft 153 kts 101°
2026-04-22 20:32 53.45225 -6.54755 3424 ft 145 kts 101°
2026-04-22 20:32 53.45130 -6.53103 3238 ft 142 kts 101°
2026-04-22 20:32 53.45036 -6.51471 3092 ft 137 kts 101°
2026-04-22 20:33 53.44948 -6.49927 2897 ft 128 kts 101°
2026-04-22 20:33 53.44862 -6.48444 2711 ft 127 kts 101°
2026-04-22 20:33 53.44777 -6.46962 2536 ft 128 kts 100°
2026-04-22 20:33 53.44692 -6.45473 2357 ft 129 kts 100°
2026-04-22 20:34 53.44607 -6.43989 2188 ft 127 kts 99°
2026-04-22 20:34 53.44525 -6.42525 2011 ft 126 kts 100°
2026-04-22 20:34 53.44441 -6.41052 1840 ft 128 kts 99°
2026-04-22 20:34 53.44358 -6.39557 1662 ft 130 kts 99°
2026-04-22 20:35 53.44265 -6.38050 1480 ft 130 kts 98°
2026-04-22 20:35 53.44191 -6.36545 1285 ft 130 kts 95°
2026-04-22 20:35 53.44114 -6.35031 1101 ft 131 kts 97°
2026-04-22 20:35 53.44024 -6.33494 906 ft 134 kts 96°
2026-04-22 20:36 53.43934 -6.31897 700 ft 139 kts 96°
2026-04-22 20:36 53.43840 -6.30289 529 ft 139 kts 96°
2026-04-22 20:36 53.43749 -6.28684 332 ft 138 kts 96°
2026-04-22 20:36 53.43662 -6.27063 210 ft 132 kts 97°
2026-04-22 20:37 53.43596 -6.25889 213 ft 70 kts 95°
2026-04-22 20:37 53.43565 -6.25373 209 ft 30 kts 103°
2026-04-22 20:37 53.43500 -6.25142 215 ft 18 kts 120°
2026-04-22 20:37 53.43437 -6.24958 210 ft 18 kts 120°
2026-04-22 20:38 53.43375 -6.24782 217 ft 17 kts 117°
2026-04-22 20:38 53.43353 -6.24589 210 ft 17 kts 94°
2026-04-22 20:38 53.43338 -6.24428 215 ft 12 kts 124°
2026-04-22 20:38 53.43259 -6.24409 212 ft 12 kts 185°
2026-04-22 20:39 53.43192 -6.24452 210 ft 11 kts 240°
2026-04-22 20:39 53.43193 -6.24574 210 ft 10 kts 275°
2026-04-22 20:39 53.43200 -6.24692 210 ft 10 kts 275°
2026-04-22 20:39 53.43204 -6.24781 214 ft 10 kts 275°
2026-04-22 20:40 53.43211 -6.24893 210 ft 9 kts 275°
2026-04-22 20:40 53.43216 -6.24979 220 ft 6 kts 276°
2026-04-22 20:40 53.43220 -6.25048 210 ft 6 kts 275°
2026-04-22 20:40 53.43221 -6.25116 210 ft 6 kts 254°
2026-04-22 20:41 53.43187 -6.25145 211 ft 6 kts 186°
2026-04-22 20:41 53.43149 -6.25150 214 ft 4 kts 185°
2026-04-22 20:41 53.43132 -6.25153 218 ft 1 kts 185°
2026-04-22 20:41 53.43131 -6.25153 218 ft 0 kts 185°